TimeEDT,TemperatureF,Dew PointF,Humidity,Sea Level PressureIn,VisibilityMPH,Wind Direction,Wind SpeedMPH,Gust SpeedMPH,PrecipitationIn,Events,Conditions,WindDirDegrees,DateUTC
12:54 AM,55.9,39.0,53,30.10,10.0,NNW,9.2,-,N/A,,Clear,330,2013-09-09 04:54:00
1:54 AM,55.9,39.0,53,30.11,10.0,NNW,8.1,-,N/A,,Clear,330,2013-09-09 05:54:00
2:54 AM,54.0,39.0,57,30.12,10.0,NNW,6.9,-,N/A,,Clear,330,2013-09-09 06:54:00
3:54 AM,53.1,39.0,59,30.14,10.0,NW,8.1,-,N/A,,Clear,320,2013-09-09 07:54:00
4:54 AM,53.1,39.0,59,30.16,10.0,NNW,5.8,-,N/A,,Partly Cloudy,340,2013-09-09 08:54:00
5:54 AM,52.0,39.0,61,30.19,10.0,NW,5.8,-,N/A,,Clear,310,2013-09-09 09:54:00
6:54 AM,53.1,39.0,59,30.21,10.0,WNW,6.9,-,N/A,,Partly Cloudy,290,2013-09-09 10:54:00
7:54 AM,55.9,39.0,53,30.23,10.0,WNW,8.1,-,N/A,,Partly Cloudy,300,2013-09-09 11:54:00
8:54 AM,60.1,39.9,47,30.23,10.0,West,4.6,-,N/A,,Scattered Clouds,280,2013-09-09 12:54:00
9:54 AM,63.0,37.9,40,30.23,10.0,Calm,Calm,-,N/A,,Scattered Clouds,0,2013-09-09 13:54:00
10:54 AM,64.0,39.9,41,30.23,10.0,SSW,8.1,-,N/A,,Mostly Cloudy,210,2013-09-09 14:54:00
11:54 AM,66.9,37.9,34,30.21,10.0,SW,10.4,16.1,N/A,,Mostly Cloudy,220,2013-09-09 15:54:00
12:54 PM,69.1,37.9,32,30.19,10.0,Variable,5.8,-,N/A,,Mostly Cloudy,0,2013-09-09 16:54:00
1:54 PM,69.1,39.9,35,30.18,10.0,SW,10.4,-,N/A,,Mostly Cloudy,220,2013-09-09 17:54:00
2:54 PM,70.0,39.9,33,30.17,10.0,SW,12.7,-,N/A,,Mostly Cloudy,230,2013-09-09 18:54:00
3:54 PM,69.1,42.1,38,30.17,10.0,SW,15.0,-,N/A,,Mostly Cloudy,230,2013-09-09 19:54:00
4:54 PM,68.0,43.0,40,30.16,10.0,WSW,13.8,-,N/A,,Overcast,240,2013-09-09 20:54:00
5:54 PM,68.0,43.0,40,30.15,10.0,SW,17.3,23.0,N/A,,Overcast,220,2013-09-09 21:54:00
6:54 PM,63.0,48.0,58,30.16,10.0,SSW,12.7,-,N/A,,Mostly Cloudy,200,2013-09-09 22:54:00
7:54 PM,61.0,46.9,60,30.16,10.0,SSW,11.5,-,N/A,,Mostly Cloudy,200,2013-09-09 23:54:00
8:54 PM,60.1,48.0,64,30.17,10.0,SSW,11.5,-,N/A,,Mostly Cloudy,200,2013-09-10 00:54:00
9:54 PM,61.0,48.9,64,30.16,10.0,SSW,11.5,-,N/A,,Mostly Cloudy,210,2013-09-10 01:54:00
10:54 PM,60.1,48.9,67,30.17,10.0,SSW,10.4,-,N/A,,Mostly Cloudy,210,2013-09-10 02:54:00
11:54 PM,60.1,48.9,67,30.16,10.0,SSW,9.2,-,N/A,,Mostly Cloudy,210,2013-09-10 03:54:00